Date,TemperatureHighF,TemperatureAvgF,TemperatureLowF,DewpointHighF,DewpointAvgF,DewpointLowF,HumidityHigh,HumidityAvg,HumidityLow,PressureMaxIn,PressureMinIn,WindSpeedMaxMPH,WindSpeedAvgMPH,GustSpeedMaxMPH,PrecipitationSumIn
2013-1-1,44.0,39.2,34.3,32.9,29.4,22.9,77,68,61,30.01,29.90,11,2,12,0.00
2013-1-2,38.6,34.1,28.3,30.9,21.8,16.3,77,61,46,30.23,29.98,18,4,18,0.00
2013-1-3,40.5,31.2,23.8,21.8,19.5,16.5,78,62,43,30.25,30.13,7,1,9,0.00
2013-1-4,45.3,36.2,28.7,25.5,22.3,20.7,73,58,42,30.20,30.09,22,5,23,0.00
2013-1-5,45.2,39.3,34.0,26.8,23.5,20.6,63,53,42,30.37,30.14,27,4,31,0.00
2013-1-6,51.8,42.4,32.6,34.1,30.5,26.8,88,64,44,30.18,30.01,12,1,13,0.01
2013-1-7,45.5,40.7,31.0,32.5,28.1,24.6,78,61,50,30.43,30.13,15,4,20,0.00
2013-1-8,52.7,39.3,28.3,35.4,30.3,23.5,89,71,49,30.41,30.34,11,2,11,0.00
2013-1-9,52.4,40.0,29.9,43.9,34.5,26.7,93,82,45,30.37,30.22,25,2,27,0.00
2013-1-10,55.7,48.3,41.1,33.2,30.6,28.4,61,51,38,30.59,30.37,23,4,25,0.00
2013-1-11,45.2,41.9,37.5,41.4,35.9,29.8,96,80,61,30.48,30.08,13,2,13,0.05
2013-1-12,55.4,45.9,41.9,49.4,43.9,41.1,98,93,79,30.17,30.08,7,1,7,0.01
2013-1-13,56.0,50.2,44.8,55.7,49.7,43.9,99,98,97,30.11,29.93,8,1,9,0.02
2013-1-14,59.3,52.2,39.7,58.9,47.9,37.8,99,86,65,30.30,29.92,22,4,22,0.16
2013-1-15,40.1,39.1,35.2,39.2,37.8,34.1,97,95,93,30.33,30.14,13,2,13,0.55
2013-1-16,40.7,37.4,34.7,39.9,36.6,33.7,98,97,96,30.15,29.82,14,1,17,0.31
2013-1-17,44.4,41.0,37.6,41.1,34.3,30.2,97,78,61,30.12,29.96,17,3,20,0.01
2013-1-18,38.1,34.9,29.7,31.3,20.4,13.0,78,56,38,30.48,30.03,25,5,27,0.00
2013-1-19,56.1,42.0,29.6,32.2,28.5,22.4,83,61,37,30.39,29.93,18,6,20,0.00
2013-1-20,59.6,45.3,34.7,34.8,23.6,10.7,69,46,19,30.07,29.82,28,6,29,0.00
2013-1-21,47.4,35.3,29.0,26.5,19.8,13.5,66,54,37,30.08,29.77,31,4,31,0.00
2013-1-22,29.0,21.0,17.2,13.5,1.2,-3.2,53,42,30,30.29,29.94,27,8,31,0.00
2013-1-23,27.0,20.7,12.5,8.8,3.2,0.6,68,47,32,30.35,30.13,17,2,17,0.00
2013-1-24,29.0,22.1,17.5,17.0,11.1,3.2,89,65,37,30.52,30.09,32,5,32,0.06
2013-1-25,23.3,20.0,16.4,18.3,9.6,1.8,88,65,48,30.52,30.07,17,2,18,0.00
2013-1-26,34.2,27.9,21.8,27.1,23.0,18.3,88,82,69,30.43,30.08,9,1,9,0.03
2013-1-27,38.5,31.0,25.0,23.3,20.6,18.0,83,66,48,30.59,30.43,8,2,10,0.00
2013-1-28,42.1,36.4,31.4,40.4,33.4,23.1,95,89,71,30.47,30.03,16,3,18,0.22
2013-1-29,70.5,54.4,38.3,55.4,48.0,36.4,97,81,58,30.09,29.93,12,2,12,0.00
2013-1-30,72.3,60.5,55.6,63.4,57.0,51.4,98,89,72,29.93,29.18,28,6,32,2.06
2013-1-31,56.7,42.0,28.8,56.1,28.5,14.8,98,60,38,29.89,29.10,32,8,35,0.53
2013-2-1,31.0,26.2,19.1,25.9,12.6,5.3,89,57,39,30.39,29.80,39,7,39,0.02
2013-2-2,30.1,22.9,14.8,26.5,15.1,6.0,91,72,55,30.39,30.01,17,2,18,0.00
2013-2-3,34.9,30.4,26.2,29.4,26.5,18.6,94,86,62,30.01,29.82,25,2,27,0.00
2013-2-4,37.6,31.5,25.1,22.0,17.2,12.9,63,55,46,30.09,29.88,30,5,32,0.00
2013-2-5,41.7,35.9,31.7,31.7,27.4,21.5,86,71,62,29.93,29.83,6,1,6,0.00
2013-2-6,46.5,38.4,31.7,33.4,29.1,23.0,90,70,48,30.33,29.92,25,4,25,0.00
2013-2-7,40.9,35.0,29.0,30.9,25.8,22.3,82,70,56,30.43,30.19,11,2,11,0.00
2013-2-8,42.5,36.9,32.9,38.9,32.2,24.0,95,84,63,30.19,29.75,37,7,37,0.16
2013-2-9,42.9,35.0,29.9,24.4,20.2,16.5,67,55,37,30.39,29.94,37,10,44,0.00
2013-2-10,46.1,35.4,23.1,26.2,19.4,14.6,78,54,31,30.47,30.21,18,3,18,0.00
2013-2-11,56.8,46.4,37.2,51.6,41.0,26.6,97,84,35,30.22,29.68,30,5,34,0.19
2013-2-12,57.9,49.6,39.4,33.4,29.3,26.6,70,46,33,29.97,29.80,31,6,37,0.01
2013-2-13,46.0,37.3,32.0,35.7,31.2,27.2,95,79,59,29.94,29.64,12,2,12,0.09
2013-2-14,50.6,40.9,33.9,34.4,30.9,27.7,96,70,45,30.00,29.77,17,3,17,0.10
2013-2-15,59.2,42.6,33.1,41.1,33.0,28.3,94,72,38,30.02,29.87,26,3,29,0.18
2013-2-16,38.9,35.0,29.9,35.4,28.9,18.1,96,80,54,29.99,29.84,20,4,22,0.05
2013-2-17,32.9,27.9,24.4,19.6,13.2,6.4,70,54,38,30.19,29.84,28,9,31,0.00
2013-2-18,43.4,31.9,20.2,17.4,11.9,8.9,63,45,28,30.38,30.12,20,3,23,0.00
2013-2-19,46.2,39.9,35.3,40.8,30.7,17.6,90,71,47,30.12,29.68,23,7,23,0.06
2013-2-20,40.1,33.0,25.2,23.4,16.2,9.9,58,50,39,30.16,29.83,30,10,36,0.00
2013-2-21,40.4,30.7,24.2,19.0,15.6,10.4,64,54,40,30.31,30.11,25,6,25,0.00
2013-2-22,33.3,31.5,29.1,30.4,24.5,18.8,90,76,62,30.36,30.19,10,3,11,0.05
2013-2-23,44.2,38.3,33.0,42.5,36.7,30.4,97,94,90,30.19,29.80,13,2,14,0.03
2013-2-24,52.8,43.3,38.8,40.6,37.4,27.7,96,83,40,29.91,29.78,21,4,27,0.00
2013-2-25,48.3,43.1,35.1,26.7,25.6,23.8,68,51,41,30.19,30.13,10,1,11,0.00
2013-2-26,42.7,37.2,30.5,41.7,33.1,24.4,97,86,68,30.20,29.59,27,4,28,0.87
2013-2-27,59.5,46.9,38.6,44.3,38.0,33.6,98,74,43,29.67,29.52,17,4,23,0.04
2013-2-28,46.9,43.0,38.3,38.6,31.5,27.1,81,64,48,29.71,29.61,19,5,20,0.01
2013-3-1,45.4,40.6,35.4,31.7,29.0,24.3,72,63,50,29.87,29.70,20,6,22,0.00
2013-3-2,38.2,33.4,30.2,26.5,23.8,21.1,75,68,56,29.88,29.80,17,5,21,0.00
2013-3-3,43.1,34.2,29.2,23.3,20.5,18.0,75,58,40,29.92,29.78,23,6,29,0.00
2013-3-4,46.0,35.4,28.7,20.6,18.2,15.6,63,50,34,30.02,29.91,30,7,30,0.00
2013-3-5,53.2,41.3,30.9,31.7,21.6,14.7,83,48,25,30.06,29.78,23,3,25,0.00
2013-3-6,37.9,35.1,33.5,35.9,33.5,31.6,97,94,83,29.99,29.61,33,8,33,0.75
2013-3-7,48.8,41.0,34.4,32.8,30.6,28.3,86,68,48,30.14,29.99,26,6,26,0.43
2013-3-8,51.2,42.0,34.8,31.7,29.4,26.8,80,62,46,30.27,30.13,37,8,37,0.01
2013-3-9,62.9,47.0,33.3,30.4,27.2,23.5,75,50,24,30.34,30.22,16,3,18,0.00
2013-3-10,64.3,48.9,31.8,33.4,27.4,23.3,85,48,24,30.30,30.17,13,4,19,0.00
2013-3-11,59.2,51.7,42.6,50.9,44.5,32.2,93,77,53,30.20,29.86,21,7,22,0.00
2013-3-12,57.9,52.5,41.6,54.8,45.4,31.1,97,78,55,29.94,29.67,27,8,28,1.04
2013-3-13,52.2,41.9,34.3,31.4,26.7,20.0,73,56,31,30.06,29.88,27,6,28,0.00
2013-3-14,47.7,38.2,31.8,22.1,18.9,16.4,61,46,31,30.11,30.02,29,9,31,0.00
2013-3-15,60.2,46.0,31.9,35.1,25.5,18.9,63,46,30,30.08,29.75,16,3,18,0.00
2013-3-16,60.4,47.1,37.7,46.4,36.8,33.3,87,68,53,29.89,29.59,18,4,21,0.01
2013-3-17,40.5,37.9,32.6,34.1,29.9,25.0,93,74,56,30.24,29.89,13,2,13,0.00
2013-3-18,38.8,35.4,31.5,35.4,31.6,24.0,96,87,58,30.30,29.87,11,2,11,0.51
2013-3-19,61.7,45.6,34.8,45.1,29.4,9.2,98,64,17,29.90,29.68,30,5,33,0.01
2013-3-20,53.7,44.1,32.6,27.9,16.9,11.0,64,35,21,29.97,29.73,22,4,26,0.00
2013-3-21,38.7,33.8,28.8,28.9,16.8,9.6,82,50,35,29.89,29.75,24,7,25,0.00
2013-3-22,49.7,37.3,27.2,21.7,18.0,12.4,59,46,31,29.98,29.87,26,5,26,0.00
2013-3-23,57.8,42.1,27.5,27.1,23.5,20.2,82,50,27,30.02,29.88,19,4,20,0.00
2013-3-24,43.4,37.6,31.6,32.4,25.6,22.7,92,63,45,29.98,29.63,12,2,13,0.00
2013-3-25,40.6,36.1,33.4,37.8,34.3,31.9,96,93,89,29.69,29.50,10,2,10,0.57
2013-3-26,50.2,41.5,33.1,38.0,32.2,27.8,97,73,43,29.99,29.69,23,5,23,0.02
2013-3-27,51.7,43.0,36.2,33.7,29.7,26.6,76,60,41,30.11,29.98,27,7,29,0.00
2013-3-28,49.4,43.1,36.2,34.2,30.8,27.6,72,62,50,30.21,30.07,25,6,30,0.00
2013-3-29,57.7,47.3,39.0,35.6,31.4,26.5,77,56,36,30.24,30.12,16,3,19,0.00
2013-3-30,62.7,49.2,33.9,33.8,28.4,24.3,82,48,23,30.21,30.07,15,2,15,0.00
2013-3-31,50.2,47.5,43.8,48.5,40.0,27.1,94,76,46,30.08,29.71,9,2,10,0.03
2013-4-1,65.2,49.2,39.8,47.0,38.0,22.5,96,69,43,29.97,29.72,32,6,33,0.01
2013-4-2,52.6,42.3,35.1,22.5,16.8,13.0,56,37,23,30.16,29.97,24,6,24,0.00
2013-4-3,54.5,40.9,28.8,21.8,17.7,12.4,74,42,20,30.37,30.16,30,5,30,0.00
2013-4-4,50.8,39.1,26.8,35.3,18.8,12.5,89,47,23,30.39,30.05,14,2,16,0.07
2013-4-5,69.2,51.0,37.9,42.1,32.5,19.1,96,58,22,30.05,29.79,22,4,23,0.09
2013-4-6,60.2,48.2,36.0,28.5,23.5,18.8,62,39,23,30.30,30.03,15,4,16,0.00
2013-4-7,71.5,55.5,39.6,43.7,36.6,28.3,70,51,35,30.23,29.93,27,8,27,0.00
2013-4-8,83.0,68.7,53.3,50.8,46.1,42.9,70,47,26,30.04,29.89,18,3,22,0.00
2013-4-9,89.5,75.9,60.3,57.8,53.6,50.0,74,48,30,30.04,29.87,17,4,18,0.00
2013-4-10,94.7,79.8,64.3,60.5,55.7,52.3,66,46,29,29.93,29.72,20,4,20,0.00
2013-4-11,90.0,74.3,58.3,62.0,57.4,52.8,86,58,33,29.84,29.66,22,4,27,0.00
2013-4-12,77.3,59.6,53.4,66.0,56.2,51.3,98,90,68,29.76,29.52,19,4,27,0.50
2013-4-13,73.5,59.0,45.2,51.3,39.2,29.3,93,52,28,29.93,29.74,15,2,17,0.00
2013-4-14,69.8,58.4,44.5,44.1,38.7,32.1,74,49,33,30.11,29.92,16,4,19,0.00
2013-4-15,66.3,60.3,56.3,52.7,47.9,42.9,71,64,56,30.24,30.09,14,4,15,0.00
2013-4-16,78.3,65.6,56.8,60.7,56.0,48.1,87,72,52,30.26,30.06,22,6,22,0.00
2013-4-17,76.6,67.9,60.0,64.6,60.2,56.3,97,78,62,30.18,30.07,17,3,18,0.03
2013-4-18,78.0,67.1,60.4,65.9,59.8,56.8,95,79,53,30.17,29.94,17,5,20,0.04
2013-4-19,77.8,66.9,50.0,67.8,61.2,46.1,95,83,65,29.95,29.55,30,7,30,1.13
2013-4-20,62.9,53.5,45.0,46.1,32.4,26.3,87,46,29,30.31,29.75,27,8,27,0.01
2013-4-21,58.4,48.0,37.8,30.6,27.8,22.9,69,47,30,30.57,30.31,16,3,17,0.00
2013-4-22,60.3,48.9,36.7,38.8,35.5,28.3,89,62,40,30.54,30.36,15,3,18,0.00
2013-4-23,60.3,51.2,44.4,48.5,42.3,36.3,84,72,62,30.38,30.08,11,-530,11,0.00
2013-4-24,77.4,60.6,45.9,59.1,51.1,43.3,94,74,47,30.09,29.74,9,-721,11,0.01
2013-4-25,64.5,55.3,46.3,50.3,41.9,35.2,78,62,37,30.28,29.96,8,0,10,0.00
2013-4-26,65.2,55.4,46.4,48.3,43.2,37.8,83,65,42,30.43,30.27,4,0,7,0.00
2013-4-27,71.2,57.9,43.6,51.2,45.4,38.9,89,65,39,30.39,30.24,4,0,10,0.00
2013-4-28,60.9,54.9,47.2,52.9,48.0,42.4,88,78,56,30.25,30.10,11,0,12,0.04
2013-4-29,59.6,56.5,54.1,58.1,54.3,50.1,96,93,80,30.12,30.00,8,0,11,0.18
2013-4-30,59.4,57.1,55.2,58.1,55.6,52.1,97,95,88,30.26,30.06,11,0,11,0.00
2013-5-1,68.8,59.3,50.1,53.8,51.1,43.0,92,76,51,30.39,30.26,4,0,5,0.00
2013-5-2,70.2,57.3,45.4,53.9,48.8,42.8,95,75,49,30.42,30.28,8,0,12,0.00
2013-5-3,67.2,56.9,47.6,54.3,49.0,43.6,94,76,57,30.35,30.25,5,0,5,0.00
2013-5-4,67.0,57.0,48.6,53.5,48.8,43.1,90,75,56,30.31,30.14,3,0,5,0.00
2013-5-5,64.1,54.8,47.9,51.5,47.0,43.3,88,76,57,30.22,30.11,4,0,5,0.00
2013-5-6,60.9,55.8,50.4,57.5,52.4,45.6,93,89,80,30.15,30.02,4,0,4,0.00
2013-5-7,62.1,60.0,58.6,61.5,58.7,56.6,98,96,93,30.03,29.88,3,0,6,0.75
2013-5-8,66.3,59.0,55.8,63.4,57.4,54.6,98,95,81,29.97,29.89,6,0,7,0.47
2013-5-9,56.2,53.8,52.9,55.0,52.9,52.0,98,97,96,29.94,29.88,0,0,0,0.01
2013-7-19,95.5,87.6,78.5,99.9,77.5,74.5,89,69,56,30.21,0.00,9,-11,10,0.00
2013-7-20,93.3,82.4,75.8,80.0,75.4,73.5,94,81,59,30.14,29.96,9,1,12,0.00
2013-7-21,93.6,81.0,72.1,80.8,75.2,70.2,97,84,62,30.05,29.95,10,0,12,0.08
2013-7-22,91.7,79.2,72.0,80.4,75.3,71.0,98,89,65,30.01,29.87,6,0,9,0.05
2013-7-23,94.4,82.5,74.3,79.4,75.2,73.0,97,81,55,29.91,29.76,10,1,11,0.00
2013-7-24,99.0,81.0,70.8,79.1,73.1,69.5,98,80,46,29.90,29.77,14,0,14,1.49
2013-7-25,84.0,74.8,68.7,74.8,71.0,66.7,98,89,69,30.08,29.86,8,1,10,0.48
2013-7-26,91.4,76.0,62.2,73.2,67.4,60.9,98,78,48,30.16,30.07,6,0,7,0.00
2013-7-27,90.5,76.2,66.0,77.3,70.8,64.8,98,85,57,30.12,29.99,9,0,9,0.20
2013-7-28,88.3,78.1,70.6,78.8,74.2,69.7,99,89,70,30.06,29.97,7,0,8,0.49
2013-7-29,92.6,79.9,71.5,76.4,72.9,70.3,98,81,51,30.20,30.04,7,1,9,0.17
2013-7-30,92.0,77.8,64.9,75.8,70.3,63.3,97,80,47,30.27,30.18,8,0,8,0.00
2013-7-31,86.5,78.1,71.2,77.1,73.0,69.6,98,85,69,30.20,30.06,6,0,7,0.00
2013-8-1,89.7,77.4,71.5,78.4,73.2,70.2,98,88,65,30.07,29.91,8,0,13,0.04
2013-8-2,95.0,80.9,68.6,78.2,73.1,67.0,98,80,51,30.07,29.95,7,0,8,0.00
2013-8-3,92.4,79.7,73.5,80.6,75.5,71.7,98,88,63,30.07,29.96,8,0,8,0.00
2013-8-9,94.5,86.2,77.6,80.1,77.4,75.0,94,77,58,30.10,30.02,9,0,9,0.00
2013-8-10,97.2,82.3,74.2,81.7,76.4,72.3,97,84,57,30.15,30.04,14,1,14,0.05
2013-8-11,97.7,83.1,71.5,81.0,75.6,70.2,98,81,53,30.16,30.04,7,0,8,0.00
2013-8-12,98.9,83.6,72.9,80.3,75.9,71.6,98,80,46,30.10,29.98,9,0,10,0.08
2013-8-13,94.2,81.4,73.6,80.4,75.8,72.5,98,85,58,30.01,29.81,10,1,14,0.25
2013-8-14,81.4,73.9,62.2,73.6,67.6,59.8,97,81,61,30.14,29.86,9,1,10,0.00
2013-8-15,83.4,67.9,59.4,64.9,60.5,57.8,96,80,44,30.22,30.13,8,1,9,0.00
2013-8-16,77.0,67.1,59.4,65.7,62.0,57.4,96,85,60,30.23,30.14,7,0,9,0.01
2013-8-17,74.5,69.7,64.6,73.2,67.9,62.6,97,94,89,30.23,30.16,7,1,7,0.44
2013-8-18,87.0,76.8,70.7,76.0,71.8,67.2,98,86,65,30.26,30.17,9,1,10,0.01
2013-8-19,75.1,71.4,68.4,72.9,69.7,66.6,97,95,89,30.25,30.15,8,0,8,0.54
2013-8-20,87.5,76.6,71.1,78.0,73.1,70.1,98,90,69,30.24,30.16,6,0,6,0.00
2013-8-21,74.5,73.6,72.8,73.4,72.4,71.5,98,96,95,30.27,30.22,3,0,3,0.00
2013-8-25,86.0,74.7,60.3,63.3,59.8,56.4,91,63,38,30.39,30.34,8,1,10,0.00
2013-8-26,89.7,70.1,54.0,67.5,60.1,52.3,98,75,38,30.38,30.17,6,0,7,0.00
2013-8-27,93.0,74.7,58.7,77.3,67.5,57.2,98,81,51,30.18,30.01,7,0,7,0.00
2013-8-28,88.3,78.1,68.4,79.1,73.8,67.0,98,88,67,30.04,29.92,5,0,6,0.00
2013-8-29,92.5,81.9,73.3,76.9,74.3,70.5,94,79,56,30.06,29.88,10,1,12,0.00
2013-8-30,94.0,77.5,64.2,73.1,68.7,62.6,98,78,44,30.12,29.99,6,0,7,0.00
2013-8-31,92.4,77.2,64.9,77.0,70.6,63.7,98,82,52,30.04,29.92,8,0,10,0.00
2013-9-1,94.4,79.3,71.6,82.9,74.5,70.5,98,87,59,29.96,29.82,14,0,14,2.16
2013-9-2,93.1,79.2,71.0,80.4,74.8,70.0,99,88,61,29.95,29.84,7,0,7,0.00
2013-9-3,91.0,77.4,71.1,81.6,74.3,69.6,98,91,69,29.99,29.85,8,0,9,0.16
2013-9-4,90.1,77.8,68.7,77.2,72.2,67.7,98,85,61,30.14,29.99,6,0,7,0.00
2013-9-5,93.2,77.5,65.5,76.2,69.2,63.0,99,79,41,30.14,30.07,9,0,9,0.00
2013-9-6,84.3,68.5,63.9,69.8,63.3,60.1,96,85,58,30.22,30.12,6,0,7,0.00